Location: Bourg-d�Oueil
(42.8588°N, 0.4991°E)
Time: 17:39:50
(UTC+00:00)

Spot 2 Rocket - Pass Details

Date: 16 June 2021
Orbit: 757 x 772 km, 98.5° (Epoch: 31 July)

Event Time Altitude Azimuth Distance (km) Brightness Sun altitude
Exits shadow 21:17:52 19° 165° (SSE) 1,769 4.8 -14.1°
Maximum altitude 21:21:36 90° 262° (W) 769 3.5 -14.5°
Drops below altitude 10° 21:26:42 10° 346° (NNW) 2,311 7.1 -15.1°
Sets 21:29:01 0° 347° (NNW) 3,244 8.1 -15.3°
